Regional Weather Roundup
Issued by NWS Jackson, KY

Home | Current Version | Previous Version | Text Only | Print | Product List | Glossary On
Versions: 1 2 3 4 5 6 7 8 9 10 11 12 13 14 15 16 17 18 19 20 21 22 23 24 25 26 27 28 29 30 31 32 33 34 35 36 37 38 39 40 41 42 43 44 45 46 47 48 49 50
000
ASUS43 KJKL 051810
RWRJKL

EAST KENTUCKY HOURLY WEATHER ROUNDUP
NATIONAL WEATHER SERVICE JACKSON KY
200 PM EDT TUE MAY 05 2015

NOTE: "FAIR" INDICATES FEW OR NO CLOUDS BELOW 12,000 FEET WITH
NO SIGNIFICANT WEATHER AND/OR OBSTRUCTIONS TO VISIBILITY.

* THESE REPORTS ARE NOT UNDER NWS QUALITY CONTROL AND MAY NOT
  REPORT WEATHER SUCH AS PRECIPITATION AND FOG.

KYZ079-080-083-085-087-088-110-112-115-119-120-051900
...EASTERN KENTUCKY...

CITY           SKY/WX    TMP DP  RH WIND       PRES   REMARKS
JACKSON        MOSUNNY   80  50  34 VRB6      30.30F
6HR MIN TEMP:  63; 6HR MAX TEMP:  82;

LONDON         SUNNY     81  47  30 CALM      30.29F
6HR MIN TEMP:  58; 6HR MAX TEMP:  82;

SOMERSET*      SUNNY     77  50  38 CALM      30.30F
MONTICELLO*    MOSUNNY   84  52  33 VRB7      30.31F
6HR MIN TEMP:  59; 6HR MAX TEMP:  84;

MIDDLESBORO*   SUNNY     80  52  37 CALM      30.29F
6HR MIN TEMP:  52; 6HR MAX TEMP:  83;

HARLAN APT*    PTCLDY    79  46  31 CALM      30.30F
HAZARD APT*    CLEAR     81  50  34 CALM      30.29F
BLACK MTN*       N/A     68  50  52 CALM        N/A
PIKEVILLE APT* PTSUNNY   79  55  44 W8        30.31F
BIG SANDY*     MOCLDY    81  54  39 SW6       30.29F
MOREHEAD APT*  PTCLDY    81  52  36 SW9G16    30.30F
$$

KYZ035-036-041-042-044-050-067-078-099-051900
...CENTRAL KENTUCKY...

CITY           SKY/WX    TMP DP  RH WIND       PRES   REMARKS
MT STERLING*   MOSUNNY   81  54  39 W9        30.30F
FLEMING/MASON* MOSUNNY   82  54  36 SW9G20    30.28F
DANVILLE*      PTSUNNY   81  52  36 W5        30.29F
RICHMOND*      SUNNY     79  54  41 SW3       30.28F
LEXINGTON      PTSUNNY   81  55  40 MISG      30.28F
6HR MIN TEMP:  63; 6HR MAX TEMP:  81;

FRANKFORT      MOSUNNY   80  54  40 SW7       30.26F
6HR MIN TEMP:  60; 6HR MAX TEMP:  81;

$$

KYZ091>093-OHZ055-061-077-WVZ005-015-034-035-042-051900
...SOUTHERN OHIO/WEST VIRGINIA...

CITY           SKY/WX    TMP DP  RH WIND       PRES   REMARKS
COVINGTON      PTSUNNY   80  54  40 W9        30.25F
COLUMBUS       MOSUNNY   78  59  51 SW12      30.24F
DAYTON         MOSUNNY   79  55  43 W12       30.25F
WILMINGTON     MOSUNNY   80  55  42 SW9       30.25F
HUNTINGTON     MOSUNNY   81  53  37 VRB5      30.26F
CHARLESTON     MOSUNNY   83  52  34 SW7       30.26F
PINEVILLE*     MOSUNNY   81  53  37 MISG      30.35F
BECKLEY        PTSUNNY   76  49  38 NW10      30.33F
BLUEFIELD      SUNNY     77  48  35 NE5       30.36F
$$

VAZ002-007-008-TNZ017-027-036-066-071-051900
...SOUTHWEST VIRGINIA/EAST TENNESSEE...

CITY           SKY/WX    TMP DP  RH WIND       PRES   REMARKS
WISE*          CLOUDY    72  45  37 CALM      30.37F
JONESVILLE*    CLEAR     81  48  32 SW6       30.32F
ABINGDON*      MOSUNNY   79  52  38 W5        30.33F
BRISTOL        MOSUNNY   80  51  36 CALM      30.31F
KNOXVILLE      MOSUNNY   80  53  39 CALM      30.29F
OAK RIDGE      SUNNY     83  54  36 CALM      30.30F
CROSSVILLE     MOSUNNY   78  49  35 NE6       30.32F
NASHVILLE      MOSUNNY   83  51  33 S8        30.26F
$$

...KEY TO REMARKS...
VSB - VISIBILITY IN MILES
WCI - WIND CHILL INDEX
HX  - HEAT INDEX

$$


USA.gov is the U.S. government's official web portal to all federal, state and local government web resources and services.